sat.trackr.live / text

‹ back to catalog

PRAETORIAN SDA_618

NORAD 65581 · 2025-203S

PAYLOAD ACTIVE UNKNOWN

§ Identity

Operator
Country
US
Launch date
2025-09-10
Launch site
AFWTR
Launch vehicle
Mass (kg)
RCS (m²)

Purposes: military

External: N2YO · Heavens-Above · Gunter

§ Orbital elements

Epoch: 2026-05-25T03:28:43.926240Z

Period
103.99 min
Inclination
81.3039°
Eccentricity
0.0008790
Mean motion
13.84772514 rev/d
Perigee alt
940.6 km
Apogee alt
953.4 km
Semi-major
7,325.1 km
B*
9.9068e-5
RAAN
31.8486°
Arg perigee
255.1859°
Mean anomaly
104.8325°
Rev number
3,552

§ Raw data

PRAETORIAN SDA_6181 65581U 25203S   26145.14495285  .00000123  00000+0  99068-4 0  99942 65581  81.3039  31.8486 0008790 255.1859 104.8325 13.84772514 35520

JSON: /api/v1/satellites/65581 · /tle

For live sub-satellite position, see the globe view (requires WebGL).

§ Visibility from observer

Set your observer location to see the next 7 days of passes ≥ 10°. The values pass through the URL so the page stays shareable.

No JS? Fill the form by hand. The geolocation button needs JavaScript.